Regional Weather Roundup
Issued by NWS

Home | Current Version | Previous Version | Text Only | Print | Product List | Glossary Off
Versions: 1 2 3 4 5 6 7 8 9 10 11 12 13 14 15 16 17 18 19 20 21 22 23 24 25 26 27 28 29 30 31 32 33 34 35 36 37 38 39 40 41 42 43 44 45 46 47 48 49 50

000
ASUS43 KLOT 080903
RWRIL

ILLINOIS REGIONAL WEATHER ROUNDUP
NATIONAL WEATHER SERVICE CHICAGO/ROMEOVILLE IL
300 AM CST THU DEC 08 2016

NOTE: "FAIR" INDICATES FEW OR NO CLOUDS BELOW 12,000 FEET WITH NO
SIGNIFICANT WEATHER AND/OR OBSTRUCTIONS TO VISIBILITY.

* THESE STATIONS ARE NOT UNDER NWS QUALITY CONTROL. THEY ALSO MAY NOT
  REPORT WEATHER SUCH AS PRECIPITATION OR FOG.

ILZ001-002-007-009-015-016-024-081000-
NORTHWEST ILLINOIS

CITY           SKY/WX    TMP DP  RH WIND       PRES   REMARKS
MOLINE         CLOUDY    20  10  65 W18G28    30.28R WCI   5
STERLING*      FLURRIES  21  15  78 W16G23    30.23R WCI   7
$$

ILZ003-004-008-010-011-017-018-081000-
NORTH CENTRAL ILLINOIS

CITY           SKY/WX    TMP DP  RH WIND       PRES   REMARKS
ROCKFORD       FLURRIES  21  13  71 W20       30.18S WCI   6
FREEPORT*      FLURRIES  19  12  73 W15G21    30.19S WCI   5
ROCHELLE*      FLURRIES  21  15  78 W16G24    30.20R WCI   7
$$

ILZ005-006-012>014-019>023-081000-
NORTHEAST ILLINOIS

CITY           SKY/WX    TMP DP  RH WIND       PRES   REMARKS
CHICAGO-OHARE  FLURRIES  23  14  68 W20G26    30.15R WCI   8
CHICAGO-MIDWAY FLURRIES  24  13  62 W20G28    30.17S WCI  10
AURORA         CLOUDY    22  15  75 W22       30.18S WCI   6
LANSING*       CLOUDY    23  17  77 W17G30    30.18S HAZE    WCI   9
WAUKEGAN       CLOUDY    23  14  68 W10G16    30.11S WCI  12
DUPAGE AIRPORT CLOUDY    22  12  65 W16G28    30.16R WCI   8
KANKAKEE*      CLOUDY    22  15  74 W18       30.22S WCI   8
WHEELING       CLOUDY    23  13  65 W15G23    30.15S WCI  10
NORTHERLY ISL    N/A     24  15  68 W10         N/A  WCI  14
$$

LMZ740>746-081000-
SOUTHERN LAKE MICHIGAN

STATION/POSITION SKY/WX   TEMP    WIND        PRES    VSBY  WAVE
                          AIR SEA DIR/SP/G                  HT/PER
                          (F)     (DEG/KT/KT) (MB)    (MI)  (FT/S)
HARRISON CRIB              25     260/ 22/ 26   N/A
BURNHAM HARBOR             24     260/  9/ 19   N/A
CALUMET HARBOR             23     260/ 10/ 18 1021.0R
BURNS HARBOR               26     260/ 21/ 29 1021.7F
MICHIGAN CITY              26     230/ 27/ 31   N/A
$$

ILZ025>027-034>036-040-047-049-050-058-095>099-081000-
WEST-CENTRAL ILLINOIS

CITY           SKY/WX    TMP DP  RH WIND       PRES   REMARKS
QUINCY         CLEAR     19  11  70 W17       30.36S WCI   4
GALESBURG*     CLOUDY    19  12  75 W22G30    30.29S WCI   2
MACOMB*        CLEAR     19  13  76 W16G24    30.35S WCI   4
JACKSONVILLE*  PTCLDY    20  13  74 W10       30.35S WCI   8
$$

ILZ028>032-037-038-041>044-048-051>054-059>061-081000-
CENTRAL ILLINOIS

CITY           SKY/WX    TMP DP  RH WIND       PRES   REMARKS
DECATUR        CLEAR     22  12  65 W14G21    30.30S WCI   9
PEORIA         CLEAR     20  11  68 W15G25    30.30S WCI   6
SPRINGFIELD    CLEAR     22  14  71 W12       30.34R WCI  10
TAYLORVILLE    NOT AVBL
$$

ILZ033-039-045-046-055>057-062-063-081000-
EAST-CENTRAL ILLINOIS

CITY           SKY/WX    TMP DP  RH WIND       PRES   REMARKS
CHAMPAIGN      CLEAR     21  14  74 W16       30.27S WCI   7
MATTOON        CLEAR     21  13  71 NW10      30.30R WCI  10
PARIS*         CLEAR     22  16  77 W16G23    30.29S WCI   8
$$

ILZ079-100>102-081000-
SOUTHWEST ILLINOIS

CITY           SKY/WX    TMP DP  RH WIND       PRES   REMARKS
BELLEVILLE     PTCLDY    23  13  63 NW13      30.39R WCI  12
CAHOKIA*       PTCLDY    25  11  55 W13       30.41R WCI  14
SPARTA*        CLEAR     25  15  65 NW9G16    30.40R WCI  15
$$

ILZ064>066-069>071-074>076-080>082-084>086-088>090-092>094-081000-
SOUTH-CENTRAL ILLINOIS

CITY           SKY/WX    TMP DP  RH WIND       PRES   REMARKS
CARBONDALE     CLEAR     28  18  66 NW12      30.38R WCI  18
CAIRO*         MOCLDY    32  23  69 NW7       30.38R WCI  26
CENTRALIA*     PTCLDY    27  17  67 NW14G24   30.36R WCI  15
$$

ILZ067-068-072-073-078-083-087-091-081000-
SOUTHEAST ILLINOIS

CITY           SKY/WX    TMP DP  RH WIND       PRES   REMARKS
LAWRENCEVILLE  MOCLDY    28  17  63 NW17      30.32R WCI  16
HARRISBURG*    PTCLDY    30  20  66 NW13      30.36R WCI  20
ROBINSON*      PTCLDY    27  18  70 NW15G22   30.32R WCI  15
CARMI*         MOCLDY    30  21  68 NW15      30.33S WCI  19
$$

ABBREVIATIONS USED IN REMARKS
   TC - TEMPERATURE IN CELSIUS
  WCI - WIND CHILL INDEX
   HX - HEAT INDEX
  VSB - VISIBILITY
$$





USA.gov is the U.S. government's official web portal to all federal, state and local government web resources and services.